Location: Val-d'Or
(48.1170°N, 77.7670°W)
Time: 22:30:22
(UTC-05:00)

ISS - Visible Passes

Search period start: 19 January 2019 00:00
Search period end: 29 January 2019 00:00
Orbit: 404 x 410 km, 51.6° (Epoch: 20 January)

Date Brightness Start Highest point End Pass type
(mag) Time Alt. Az. Time Alt. Az. Time Alt. Az.
21 Jan -1.2 18:56:38 10° S 18:57:02 12° S 18:57:02 12° S visible
22 Jan -0.9 19:40:21 10° SW 19:40:52 14° SW 19:40:52 14° SW visible
23 Jan -2.6 18:49:17 10° SSW 18:51:51 31° SSE 18:51:51 31° SSE visible
24 Jan -2.1 17:58:31 10° S 18:01:03 20° SE 18:02:46 14° E visible
24 Jan -1.6 19:33:57 10° WSW 19:35:30 25° WSW 19:35:30 25° WSW visible
25 Jan -3.8 18:42:36 10° SW 18:45:52 64° SSE 18:46:20 55° ESE visible
26 Jan -3.0 17:51:24 10° SW 17:54:31 40° SSE 17:57:06 14° E visible
26 Jan -2.1 19:27:45 10° W 19:29:49 33° WNW 19:29:49 33° WNW visible
27 Jan -3.8 18:36:13 10° WSW 18:39:30 74° NNW 18:40:32 40° NE visible
27 Jan -0.2 20:13:08 10° WNW 20:13:15 11° WNW 20:13:15 11° WNW visible
28 Jan -3.8 17:44:46 10° WSW 17:48:03 78° SSE 17:51:13 11° ENE visible
28 Jan -2.4 19:21:34 10° W 19:23:56 35° NW 19:23:56 35° NW visible
